FAC8572 SKPQ-SKGB

Flight info

Callsign FAC8572
Flight time 1h 24m
Altitude 6000
Route PAL1A PAL DCT TOLOD DCT ISNOX DCT SIPOG
Aircraft C208/L-SDFGR/C

Departure

Time 2026-04-12 20:07
Airport German Olano Air Base (SKPQ)

Arrival

Time 2026-04-12 21:31
Airport Marco Fidel Suarez Air Base (SKGB)
Time Latitude Longitude Altitude Speed Heading
2026-04-12 19:43 5.47240 -74.65391 579 ft 0 kts 179°
2026-04-12 20:01 5.47229 -74.65391 579 ft 9 kts 185°
2026-04-12 20:01 5.47204 -74.65429 576 ft 11 kts 272°
2026-04-12 20:01 5.47203 -74.65529 573 ft 8 kts 240°
2026-04-12 20:02 5.47129 -74.65544 572 ft 16 kts 183°
2026-04-12 20:02 5.47065 -74.65555 577 ft 8 kts 235°
2026-04-12 20:02 5.47036 -74.65616 576 ft 8 kts 248°
2026-04-12 20:02 5.47004 -74.65698 575 ft 9 kts 264°
2026-04-12 20:03 5.47003 -74.65724 573 ft 0 kts 270°
2026-04-12 20:06 5.47003 -74.65748 574 ft 10 kts 270°
2026-04-12 20:06 5.47029 -74.65798 575 ft 10 kts
2026-04-12 20:06 5.47059 -74.65797 576 ft 6 kts
2026-04-12 20:06 5.47257 -74.65788 577 ft 57 kts
2026-04-12 20:07 5.47793 -74.65762 658 ft 87 kts
2026-04-12 20:07 5.48413 -74.65745 872 ft 92 kts
2026-04-12 20:07 5.49047 -74.65736 1106 ft 93 kts
2026-04-12 20:07 5.49745 -74.65731 1318 ft 107 kts 360°
2026-04-12 20:08 5.50516 -74.65743 1589 ft 119 kts 359°
2026-04-12 20:08 5.51244 -74.66115 1944 ft 127 kts 305°
2026-04-12 20:08 5.51357 -74.67008 2104 ft 136 kts 246°
2026-04-12 20:08 5.50658 -74.67530 2455 ft 130 kts 182°
2026-04-12 20:09 5.49876 -74.67159 2771 ft 126 kts 140°
2026-04-12 20:09 5.49218 -74.66564 3064 ft 128 kts 132°
2026-04-12 20:09 5.48771 -74.65817 3369 ft 125 kts 100°
2026-04-12 20:09 5.49039 -74.65021 3686 ft 123 kts 50°
2026-04-12 20:10 5.49548 -74.64361 3999 ft 118 kts 55°
2026-04-12 20:10 5.49999 -74.63738 4291 ft 104 kts 53°
2026-04-12 20:10 5.50504 -74.63255 4580 ft 99 kts 23°
2026-04-12 20:10 5.51151 -74.63158 4875 ft 91 kts 353°
2026-04-12 20:11 5.51703 -74.63386 5152 ft 83 kts 321°
2026-04-12 20:11 5.52094 -74.63858 5269 ft 97 kts 296°
2026-04-12 20:11 5.52166 -74.64530 5460 ft 102 kts 256°
2026-04-12 20:11 5.51836 -74.65165 5638 ft 106 kts 230°
2026-04-12 20:12 5.51383 -74.65776 5807 ft 113 kts 233°
2026-04-12 20:12 5.50910 -74.66429 5967 ft 117 kts 232°
2026-04-12 20:12 5.50415 -74.67108 6119 ft 123 kts 233°
2026-04-12 20:12 5.49900 -74.67814 6263 ft 127 kts 232°
2026-04-12 20:13 5.49403 -74.68559 6396 ft 131 kts 247°
2026-04-12 20:13 5.49429 -74.69454 6523 ft 133 kts 284°
2026-04-12 20:13 5.49830 -74.71288 6798 ft 136 kts 281°
2026-04-12 20:14 5.50031 -74.72216 6928 ft 137 kts 281°
2026-04-12 20:14 5.50230 -74.73158 7059 ft 137 kts 281°
2026-04-12 20:14 5.50430 -74.74092 7182 ft 137 kts 281°
2026-04-12 20:14 5.50630 -74.75030 7309 ft 137 kts 281°
2026-04-12 20:15 5.50831 -74.75970 7436 ft 138 kts 281°
2026-04-12 20:15 5.51030 -74.76910 7560 ft 138 kts 281°
2026-04-12 20:15 5.51230 -74.77853 7679 ft 139 kts 281°
2026-04-12 20:15 5.51431 -74.78790 7802 ft 139 kts 281°
2026-04-12 20:16 5.51633 -74.79741 7929 ft 140 kts 281°
2026-04-12 20:16 5.51836 -74.80698 8048 ft 140 kts 281°
2026-04-12 20:16 5.52039 -74.81655 8177 ft 139 kts 281°
2026-04-12 20:16 5.52242 -74.82605 8305 ft 139 kts 281°
2026-04-12 20:17 5.52445 -74.83557 8432 ft 140 kts 281°
2026-04-12 20:17 5.52648 -74.84509 8558 ft 140 kts 281°
2026-04-12 20:17 5.52851 -74.85465 8681 ft 140 kts 281°
2026-04-12 20:17 5.53055 -74.86422 8807 ft 140 kts 281°
2026-04-12 20:18 5.53258 -74.87373 8929 ft 140 kts 281°
2026-04-12 20:18 5.53466 -74.88323 9055 ft 142 kts 281°
2026-04-12 20:18 5.53667 -74.89293 9178 ft 143 kts 280°
2026-04-12 20:18 5.53873 -74.90269 9311 ft 143 kts 281°
2026-04-12 20:19 5.54081 -74.91244 9437 ft 142 kts 281°
2026-04-12 20:19 5.54288 -74.92209 9562 ft 141 kts 281°
2026-04-12 20:19 5.54494 -74.93179 9681 ft 143 kts 280°
2026-04-12 20:19 5.54701 -74.94158 9805 ft 144 kts 281°
2026-04-12 20:20 5.54911 -74.95143 9928 ft 144 kts 281°
2026-04-12 20:20 5.55119 -74.96125 10052 ft 144 kts 281°
2026-04-12 20:20 5.55324 -74.97100 10176 ft 143 kts 281°
2026-04-12 20:20 5.55534 -74.98076 10295 ft 143 kts 281°
2026-04-12 20:21 5.55738 -74.99036 10421 ft 142 kts 281°
2026-04-12 20:21 5.55946 -75.00014 10547 ft 144 kts 280°
2026-04-12 20:21 5.56154 -75.00990 10689 ft 142 kts 280°
2026-04-12 20:21 5.56357 -75.01945 10891 ft 137 kts 280°
2026-04-12 20:22 5.56551 -75.02862 11131 ft 130 kts 280°
2026-04-12 20:22 5.56739 -75.03740 11360 ft 127 kts 280°
2026-04-12 20:22 5.56919 -75.04598 11591 ft 124 kts 280°
2026-04-12 20:22 5.57097 -75.05437 11820 ft 121 kts 279°
2026-04-12 20:23 5.57271 -75.06257 12053 ft 120 kts 279°
2026-04-12 20:23 5.57447 -75.07088 12191 ft 124 kts 279°
2026-04-12 20:23 5.57632 -75.07957 12331 ft 130 kts 280°
2026-04-12 20:23 5.57822 -75.08843 12476 ft 133 kts 279°
2026-04-12 20:24 5.58017 -75.09764 12620 ft 136 kts 280°
2026-04-12 20:24 5.58218 -75.10708 12751 ft 139 kts 279°
2026-04-12 20:24 5.58421 -75.11666 12886 ft 141 kts 279°
2026-04-12 20:24 5.58626 -75.12631 13019 ft 141 kts 281°
2026-04-12 20:25 5.58834 -75.13605 13146 ft 143 kts 279°
2026-04-12 20:25 5.59040 -75.14585 13274 ft 144 kts 280°
2026-04-12 20:25 5.59249 -75.15570 13405 ft 144 kts 280°
2026-04-12 20:25 5.59459 -75.16555 13535 ft 144 kts 280°
2026-04-12 20:26 5.59473 -75.17541 13659 ft 141 kts 251°
2026-04-12 20:26 5.59086 -75.18443 13746 ft 144 kts 243°
2026-04-12 20:26 5.58684 -75.19389 13753 ft 151 kts 244°
2026-04-12 20:26 5.58270 -75.20360 13757 ft 156 kts 244°
2026-04-12 20:27 5.57836 -75.21371 13761 ft 159 kts 244°
2026-04-12 20:27 5.57394 -75.22399 13764 ft 161 kts 244°
2026-04-12 20:27 5.56947 -75.23437 13766 ft 162 kts 244°
2026-04-12 20:27 5.56502 -75.24483 13760 ft 163 kts 244°
2026-04-12 20:28 5.56053 -75.25526 13769 ft 163 kts 244°
2026-04-12 20:28 5.55601 -75.26572 13769 ft 164 kts 244°
2026-04-12 20:28 5.55149 -75.27627 13766 ft 163 kts 244°
2026-04-12 20:28 5.54698 -75.28674 13764 ft 164 kts 244°
2026-04-12 20:29 5.54247 -75.29720 13770 ft 163 kts 244°
2026-04-12 20:29 5.53799 -75.30769 13777 ft 164 kts 244°
2026-04-12 20:29 5.53347 -75.31819 13775 ft 164 kts 244°
2026-04-12 20:29 5.52897 -75.32868 13786 ft 163 kts 244°
2026-04-12 20:30 5.52447 -75.33913 13783 ft 163 kts 244°
2026-04-12 20:30 5.52006 -75.34936 13784 ft 162 kts 244°
2026-04-12 20:30 5.51561 -75.35974 13784 ft 162 kts 244°
2026-04-12 20:30 5.51116 -75.37013 13793 ft 162 kts 244°
2026-04-12 20:31 5.50668 -75.38052 13796 ft 163 kts 244°
2026-04-12 20:31 5.50222 -75.39095 13802 ft 162 kts 244°
2026-04-12 20:31 5.49772 -75.40138 13810 ft 164 kts 244°
2026-04-12 20:31 5.49318 -75.41189 13805 ft 164 kts 244°
2026-04-12 20:32 5.48863 -75.42249 13809 ft 166 kts 244°
2026-04-12 20:32 5.48407 -75.43312 13803 ft 165 kts 244°
2026-04-12 20:32 5.47956 -75.44361 13819 ft 163 kts 244°
2026-04-12 20:32 5.47505 -75.45406 13821 ft 163 kts 244°
2026-04-12 20:33 5.47053 -75.46457 13819 ft 164 kts 244°
2026-04-12 20:33 5.46607 -75.47493 13835 ft 163 kts 244°
2026-04-12 20:33 5.46160 -75.48538 13868 ft 162 kts 244°
2026-04-12 20:33 5.45712 -75.49576 13872 ft 160 kts 243°
2026-04-12 20:34 5.45269 -75.50603 13874 ft 161 kts 244°
2026-04-12 20:34 5.44824 -75.51636 13874 ft 162 kts 244°
2026-04-12 20:34 5.44377 -75.52679 13874 ft 163 kts 244°
2026-04-12 20:34 5.43928 -75.53722 13874 ft 163 kts 244°
2026-04-12 20:35 5.43476 -75.54771 13878 ft 164 kts 244°
2026-04-12 20:35 5.43025 -75.55822 13873 ft 164 kts 244°
2026-04-12 20:35 5.42568 -75.56879 13866 ft 165 kts 244°
2026-04-12 20:35 5.42116 -75.57931 13871 ft 164 kts 244°
2026-04-12 20:36 5.41666 -75.58979 13866 ft 163 kts 244°
2026-04-12 20:36 5.41215 -75.60023 13851 ft 164 kts 244°
2026-04-12 20:36 5.40767 -75.61054 13848 ft 163 kts 242°
2026-04-12 20:36 5.40054 -75.61910 13845 ft 160 kts 213°
2026-04-12 20:37 5.39055 -75.62369 13846 ft 158 kts 196°
2026-04-12 20:37 5.38010 -75.62722 13844 ft 159 kts 198°
2026-04-12 20:37 5.36968 -75.63089 13843 ft 159 kts 198°
2026-04-12 20:37 5.36262 -75.63342 15691 ft 109 kts 199°
2026-04-12 20:38 5.35575 -75.63581 15666 ft 96 kts 197°
2026-04-12 20:38 5.34914 -75.63802 15708 ft 108 kts 198°
2026-04-12 20:38 5.34138 -75.64074 15721 ft 128 kts 198°
2026-04-12 20:38 5.33243 -75.64388 15720 ft 144 kts 198°
2026-04-12 20:39 5.32299 -75.64720 15886 ft 143 kts 198°
2026-04-12 20:39 5.31366 -75.65046 16043 ft 144 kts 198°
2026-04-12 20:39 5.30409 -75.65380 16136 ft 149 kts 198°
2026-04-12 20:39 5.29399 -75.65731 16143 ft 158 kts 199°
2026-04-12 20:40 5.28347 -75.66100 16150 ft 162 kts 198°
2026-04-12 20:40 5.27292 -75.66468 16143 ft 159 kts 198°
2026-04-12 20:40 5.26246 -75.66834 16148 ft 158 kts 198°
2026-04-12 20:40 5.25210 -75.67195 16143 ft 157 kts 198°
2026-04-12 20:41 5.24181 -75.67555 16143 ft 156 kts 198°
2026-04-12 20:41 5.23157 -75.67912 16138 ft 156 kts 198°
2026-04-12 20:41 5.22133 -75.68269 16137 ft 156 kts 198°
2026-04-12 20:41 5.21110 -75.68626 16136 ft 156 kts 198°
2026-04-12 20:42 5.20082 -75.68984 16117 ft 156 kts 198°
2026-04-12 20:42 5.19058 -75.69343 16118 ft 155 kts 198°
2026-04-12 20:42 5.18038 -75.69698 16117 ft 155 kts 198°
2026-04-12 20:42 5.17031 -75.70050 16116 ft 155 kts 198°
2026-04-12 20:43 5.16009 -75.70406 16109 ft 156 kts 198°
2026-04-12 20:43 5.14985 -75.70763 16107 ft 156 kts 198°
2026-04-12 20:43 5.13931 -75.71131 15884 ft 162 kts 198°
2026-04-12 20:43 5.12884 -75.71498 15627 ft 157 kts 198°
2026-04-12 20:44 5.11862 -75.71852 15369 ft 154 kts 198°
2026-04-12 20:44 5.11195 -75.72086 15194 ft 152 kts 198°
2026-04-12 20:44 5.10198 -75.72432 14942 ft 151 kts 198°
2026-04-12 20:44 5.09209 -75.72778 14688 ft 150 kts 198°
2026-04-12 20:45 5.08222 -75.73122 14441 ft 150 kts 198°
2026-04-12 20:45 5.07236 -75.73466 14188 ft 150 kts 198°
2026-04-12 20:45 5.06264 -75.73806 14033 ft 144 kts 198°
2026-04-12 20:45 5.05343 -75.74127 13969 ft 136 kts 197°
2026-04-12 20:46 5.04465 -75.74433 13922 ft 130 kts 197°
2026-04-12 20:46 5.03635 -75.74724 13924 ft 124 kts 197°
2026-04-12 20:46 5.02845 -75.74999 13923 ft 119 kts 197°
2026-04-12 20:46 5.02082 -75.75265 13960 ft 114 kts 197°
2026-04-12 20:47 5.01359 -75.75518 14004 ft 108 kts 197°
2026-04-12 20:47 5.00657 -75.75761 14004 ft 106 kts 197°
2026-04-12 20:47 4.99962 -75.76003 13999 ft 106 kts 197°
2026-04-12 20:47 4.99273 -75.76243 14000 ft 104 kts 197°
2026-04-12 20:48 4.98589 -75.76482 13999 ft 104 kts 197°
2026-04-12 20:48 4.97895 -75.76723 14014 ft 111 kts 197°
2026-04-12 20:48 4.97107 -75.76998 14026 ft 129 kts 198°
2026-04-12 20:48 4.96221 -75.77310 14018 ft 144 kts 198°
2026-04-12 20:49 4.95235 -75.77655 14012 ft 155 kts 198°
2026-04-12 20:49 4.94196 -75.78018 13994 ft 159 kts 198°
2026-04-12 20:49 4.93150 -75.78385 13986 ft 160 kts 198°
2026-04-12 20:49 4.92109 -75.78744 13977 ft 157 kts 198°
2026-04-12 20:50 4.91088 -75.79101 13977 ft 155 kts 198°
2026-04-12 20:50 4.90069 -75.79456 13977 ft 154 kts 198°
2026-04-12 20:50 4.89055 -75.79809 13970 ft 154 kts 198°
2026-04-12 20:50 4.88044 -75.80162 13969 ft 154 kts 198°
2026-04-12 20:51 4.87034 -75.80514 13966 ft 154 kts 198°
2026-04-12 20:51 4.86025 -75.80866 13968 ft 153 kts 197°
2026-04-12 20:51 4.85015 -75.81218 13966 ft 154 kts 198°
2026-04-12 20:51 4.84006 -75.81570 13965 ft 153 kts 197°
2026-04-12 20:52 4.82997 -75.81922 13964 ft 153 kts 198°
2026-04-12 20:52 4.82004 -75.82268 13958 ft 153 kts 198°
2026-04-12 20:52 4.80991 -75.82621 13954 ft 154 kts 198°
2026-04-12 20:52 4.79975 -75.82975 13953 ft 154 kts 198°
2026-04-12 20:53 4.78958 -75.83330 13943 ft 154 kts 198°
2026-04-12 20:53 4.77951 -75.83712 13941 ft 155 kts 206°
2026-04-12 20:53 4.77013 -75.84251 13928 ft 156 kts 208°
2026-04-12 20:53 4.76073 -75.84785 13933 ft 155 kts 207°
2026-04-12 20:54 4.75138 -75.85309 13924 ft 156 kts 207°
2026-04-12 20:54 4.74193 -75.85840 13925 ft 156 kts 207°
2026-04-12 20:54 4.73243 -75.86373 13912 ft 157 kts 207°
2026-04-12 20:54 4.72290 -75.86909 13917 ft 157 kts 207°
2026-04-12 20:55 4.71337 -75.87445 13915 ft 157 kts 207°
2026-04-12 20:55 4.70380 -75.87985 13911 ft 158 kts 207°
2026-04-12 20:55 4.69417 -75.88525 13908 ft 159 kts 207°
2026-04-12 20:55 4.68454 -75.89066 13907 ft 159 kts 208°
2026-04-12 20:56 4.67496 -75.89605 13906 ft 157 kts 207°
2026-04-12 20:56 4.66543 -75.90139 13904 ft 156 kts 208°
2026-04-12 20:56 4.65593 -75.90673 13901 ft 156 kts 207°
2026-04-12 20:56 4.64652 -75.91202 13904 ft 155 kts 207°
2026-04-12 20:57 4.63712 -75.91731 13905 ft 155 kts 207°
2026-04-12 20:57 4.62768 -75.92262 13906 ft 155 kts 207°
2026-04-12 20:57 4.61835 -75.92786 13903 ft 156 kts 207°
2026-04-12 20:57 4.60891 -75.93317 13903 ft 155 kts 207°
2026-04-12 20:58 4.59948 -75.93847 13905 ft 155 kts 207°
2026-04-12 20:58 4.59006 -75.94376 13909 ft 155 kts 207°
2026-04-12 20:58 4.58059 -75.94907 13906 ft 156 kts 207°
2026-04-12 20:58 4.57114 -75.95438 13912 ft 156 kts 207°
2026-04-12 20:59 4.56168 -75.95970 13913 ft 155 kts 207°
2026-04-12 20:59 4.55235 -75.96494 13914 ft 155 kts 207°
2026-04-12 20:59 4.54290 -75.97025 13908 ft 156 kts 207°
2026-04-12 20:59 4.53340 -75.97558 13907 ft 156 kts 207°
2026-04-12 21:00 4.52390 -75.98092 13906 ft 156 kts 207°
2026-04-12 21:00 4.51441 -75.98626 13906 ft 157 kts 208°
2026-04-12 21:00 4.50488 -75.99161 13906 ft 157 kts 208°
2026-04-12 21:00 4.49537 -75.99697 13907 ft 157 kts 208°
2026-04-12 21:01 4.48582 -76.00233 13886 ft 158 kts 208°
2026-04-12 21:01 4.47622 -76.00772 13888 ft 158 kts 207°
2026-04-12 21:01 4.46675 -76.01302 13887 ft 158 kts 207°
2026-04-12 21:01 4.45717 -76.01840 13890 ft 157 kts 207°
2026-04-12 21:02 4.44765 -76.02376 13918 ft 155 kts 207°
2026-04-12 21:02 4.43821 -76.02906 13917 ft 156 kts 207°
2026-04-12 21:02 4.42873 -76.03438 13919 ft 156 kts 208°
2026-04-12 21:02 4.41922 -76.03972 13921 ft 157 kts 208°
2026-04-12 21:03 4.40972 -76.04505 13923 ft 156 kts 208°
2026-04-12 21:03 4.40023 -76.05039 13924 ft 156 kts 208°
2026-04-12 21:03 4.39073 -76.05573 13919 ft 156 kts 208°
2026-04-12 21:03 4.38123 -76.06106 13923 ft 156 kts 208°
2026-04-12 21:04 4.37174 -76.06638 13924 ft 156 kts 208°
2026-04-12 21:04 4.36233 -76.07168 13922 ft 157 kts 208°
2026-04-12 21:04 4.35277 -76.07704 13917 ft 158 kts 208°
2026-04-12 21:04 4.34320 -76.08241 13917 ft 158 kts 208°
2026-04-12 21:05 4.33364 -76.08778 13917 ft 157 kts 209°
2026-04-12 21:05 4.32408 -76.09315 13917 ft 157 kts 208°
2026-04-12 21:05 4.31452 -76.09851 13915 ft 157 kts 208°
2026-04-12 21:05 4.30499 -76.10387 13916 ft 157 kts 208°
2026-04-12 21:06 4.29545 -76.10922 13915 ft 157 kts 208°
2026-04-12 21:06 4.28592 -76.11457 13914 ft 157 kts 209°
2026-04-12 21:06 4.27634 -76.11995 13911 ft 158 kts 209°
2026-04-12 21:06 4.26677 -76.12533 13914 ft 158 kts 208°
2026-04-12 21:07 4.25720 -76.13069 13915 ft 158 kts 208°
2026-04-12 21:07 4.24763 -76.13607 13882 ft 159 kts 208°
2026-04-12 21:07 4.23768 -76.14165 13640 ft 171 kts 209°
2026-04-12 21:07 4.22709 -76.14760 13408 ft 177 kts 209°
2026-04-12 21:08 4.21635 -76.15363 13166 ft 173 kts 209°
2026-04-12 21:08 4.20627 -76.15928 12905 ft 162 kts 208°
2026-04-12 21:08 4.19658 -76.16470 12635 ft 156 kts 208°
2026-04-12 21:08 4.18723 -76.16992 12374 ft 152 kts 208°
2026-04-12 21:09 4.17809 -76.17506 12116 ft 150 kts 208°
2026-04-12 21:09 4.16914 -76.18010 11863 ft 148 kts 208°
2026-04-12 21:09 4.16015 -76.18514 11603 ft 148 kts 208°
2026-04-12 21:09 4.15118 -76.19016 11352 ft 148 kts 208°
2026-04-12 21:10 4.14222 -76.19519 11100 ft 147 kts 208°
2026-04-12 21:10 4.13334 -76.20018 10850 ft 146 kts 208°
2026-04-12 21:10 4.12450 -76.20514 10599 ft 145 kts 208°
2026-04-12 21:10 4.11568 -76.21008 10353 ft 145 kts 208°
2026-04-12 21:11 4.10681 -76.21507 10106 ft 146 kts 208°
2026-04-12 21:11 4.09804 -76.22000 9853 ft 143 kts 208°
2026-04-12 21:11 4.08919 -76.22448 9601 ft 141 kts 198°
2026-04-12 21:11 4.07988 -76.22751 9351 ft 140 kts 198°
2026-04-12 21:12 4.07066 -76.23066 9095 ft 140 kts 198°
2026-04-12 21:12 4.06147 -76.23383 8856 ft 139 kts 198°
2026-04-12 21:12 4.05227 -76.23698 8603 ft 140 kts 198°
2026-04-12 21:12 4.04321 -76.24009 8362 ft 139 kts 198°
2026-04-12 21:13 4.03406 -76.24324 8113 ft 138 kts 198°
2026-04-12 21:13 4.02492 -76.24636 7860 ft 139 kts 198°
2026-04-12 21:13 4.01573 -76.24952 7617 ft 141 kts 199°
2026-04-12 21:13 4.00649 -76.25268 7371 ft 140 kts 198°
2026-04-12 21:14 3.99727 -76.25587 7117 ft 139 kts 198°
2026-04-12 21:14 3.98812 -76.25901 6864 ft 137 kts 198°
2026-04-12 21:14 3.97906 -76.26211 6622 ft 139 kts 198°
2026-04-12 21:14 3.96986 -76.26528 6372 ft 138 kts 199°
2026-04-12 21:15 3.96107 -76.26830 6246 ft 131 kts 199°
2026-04-12 21:15 3.95234 -76.27136 6123 ft 135 kts 199°
2026-04-12 21:15 3.94341 -76.27436 5999 ft 135 kts 199°
2026-04-12 21:15 3.93441 -76.27741 5885 ft 138 kts 199°
2026-04-12 21:16 3.92537 -76.28055 5755 ft 138 kts 200°
2026-04-12 21:16 3.91632 -76.28366 5630 ft 139 kts 200°
2026-04-12 21:16 3.90724 -76.28678 5503 ft 138 kts 200°
2026-04-12 21:16 3.89806 -76.28994 5387 ft 142 kts 202°
2026-04-12 21:17 3.89022 -76.29593 5256 ft 144 kts 219°
2026-04-12 21:17 3.88079 -76.29900 5135 ft 145 kts 182°
2026-04-12 21:17 3.87073 -76.29821 5013 ft 144 kts 175°
2026-04-12 21:17 3.86070 -76.29754 4879 ft 146 kts 178°
2026-04-12 21:18 3.85072 -76.29715 4866 ft 141 kts 179°
2026-04-12 21:18 3.84094 -76.29665 4851 ft 141 kts 178°
2026-04-12 21:18 3.83138 -76.29618 4850 ft 137 kts 179°
2026-04-12 21:18 3.82181 -76.29565 4853 ft 137 kts 178°
2026-04-12 21:19 3.81224 -76.29522 4849 ft 139 kts 179°
2026-04-12 21:19 3.80242 -76.29478 4851 ft 143 kts 178°
2026-04-12 21:19 3.79246 -76.29435 4859 ft 143 kts 179°
2026-04-12 21:19 3.78247 -76.29391 4860 ft 144 kts 179°
2026-04-12 21:20 3.77236 -76.29347 4859 ft 146 kts 179°
2026-04-12 21:20 3.76217 -76.29295 4854 ft 146 kts 179°
2026-04-12 21:20 3.75207 -76.29248 4854 ft 145 kts 179°
2026-04-12 21:20 3.74196 -76.29202 4853 ft 146 kts 179°
2026-04-12 21:21 3.73185 -76.29143 4836 ft 145 kts 172°
2026-04-12 21:21 3.72207 -76.29105 4845 ft 141 kts 196°
2026-04-12 21:21 3.71330 -76.29503 4855 ft 142 kts 215°
2026-04-12 21:21 3.70509 -76.30063 4850 ft 143 kts 215°
2026-04-12 21:22 3.69685 -76.30610 4861 ft 143 kts 215°
2026-04-12 21:22 3.68848 -76.31164 4861 ft 145 kts 215°
2026-04-12 21:22 3.67988 -76.31706 4859 ft 147 kts 210°
2026-04-12 21:22 3.67073 -76.32167 4855 ft 148 kts 209°
2026-04-12 21:23 3.66162 -76.32635 4851 ft 146 kts 209°
2026-04-12 21:23 3.65267 -76.33096 4849 ft 144 kts 209°
2026-04-12 21:23 3.64381 -76.33556 4850 ft 144 kts 210°
2026-04-12 21:23 3.63478 -76.34020 4848 ft 145 kts 208°
2026-04-12 21:24 3.62577 -76.34474 4856 ft 146 kts 208°
2026-04-12 21:24 3.61667 -76.34919 4855 ft 144 kts 207°
2026-04-12 21:24 3.60762 -76.35350 4862 ft 144 kts 207°
2026-04-12 21:24 3.59911 -76.35879 4852 ft 143 kts 229°
2026-04-12 21:25 3.59244 -76.36612 4866 ft 144 kts 223°
2026-04-12 21:25 3.58378 -76.37092 4933 ft 140 kts 199°
2026-04-12 21:25 3.57460 -76.37369 4995 ft 139 kts 197°
2026-04-12 21:25 3.56522 -76.37646 4956 ft 143 kts 198°
2026-04-12 21:26 3.55555 -76.37930 4868 ft 147 kts 197°
2026-04-12 21:26 3.53854 -76.38965 4856 ft 146 kts 230°
2026-04-12 21:26 3.53158 -76.39705 4861 ft 146 kts 227°
2026-04-12 21:27 3.52462 -76.40425 4850 ft 141 kts 228°
2026-04-12 21:27 3.51791 -76.41131 4853 ft 139 kts 228°
2026-04-12 21:27 3.51150 -76.41805 4847 ft 125 kts 228°
2026-04-12 21:27 3.50593 -76.42394 4839 ft 108 kts 229°
2026-04-12 21:28 3.50082 -76.42921 4729 ft 106 kts 228°
2026-04-12 21:28 3.49552 -76.43449 4509 ft 107 kts 226°
2026-04-12 21:28 3.49057 -76.44004 4377 ft 102 kts 235°
2026-04-12 21:28 3.48662 -76.44563 4210 ft 99 kts 242°
2026-04-12 21:29 3.48318 -76.45143 4035 ft 95 kts 245°
2026-04-12 21:29 3.48008 -76.45697 3913 ft 87 kts 246°
2026-04-12 21:29 3.47744 -76.46180 3832 ft 73 kts 245°
2026-04-12 21:29 3.47497 -76.46620 3735 ft 73 kts 246°
2026-04-12 21:30 3.47256 -76.47091 3632 ft 77 kts 247°
2026-04-12 21:30 3.47022 -76.47552 3538 ft 70 kts 253°
2026-04-12 21:30 3.46788 -76.47975 3465 ft 71 kts 246°
2026-04-12 21:30 3.46540 -76.48452 3335 ft 78 kts 264°
2026-04-12 21:31 3.46281 -76.48935 3169 ft 91 kts 246°
2026-04-12 21:31 3.46019 -76.49414 3147 ft 65 kts 246°
2026-04-12 21:31 3.45832 -76.49761 3146 ft 51 kts 240°
2026-04-12 21:31 3.45709 -76.49977 3144 ft 9 kts 184°
2026-04-12 21:32 3.45639 -76.49947 3145 ft 9 kts 154°
2026-04-12 21:32 3.45574 -76.49915 3145 ft 16 kts 154°
2026-04-12 21:32 3.45548 -76.49884 3145 ft 5 kts 56°
2026-04-12 21:32 3.45578 -76.49833 3145 ft 10 kts 61°
2026-04-12 21:33 3.45632 -76.49742 3145 ft 16 kts 60°
2026-04-12 21:33 3.45670 -76.49674 3145 ft 14 kts 60°
2026-04-12 21:33 3.45731 -76.49570 3145 ft 19 kts 63°
2026-04-12 21:33 3.45780 -76.49465 3145 ft 11 kts 75°
2026-04-12 21:34 3.45774 -76.49491 3145 ft 11 kts 238°
2026-04-12 21:34 3.45720 -76.49587 3145 ft 20 kts 240°
2026-04-12 21:34 3.45670 -76.49676 3145 ft 11 kts 240°
2026-04-12 21:34 3.45615 -76.49773 3145 ft 16 kts 242°
2026-04-12 21:35 3.45568 -76.49856 3145 ft 15 kts 240°
2026-04-12 21:35 3.45536 -76.49895 3145 ft 3 kts 116°
2026-04-12 21:35 3.45537 -76.49858 3145 ft 13 kts 90°
2026-04-12 21:35 3.45517 -76.49770 3145 ft 6 kts 176°
2026-04-12 21:36 3.45512 -76.49778 3145 ft 2 kts 272°
2026-04-12 21:36 3.45512 -76.49781 3145 ft 0 kts 272°